Flag for Switzerland Weather past 2 weeks in Zug, Zug, Switzerland

Now
47 °F

Cool.


Feels Like: 39 °F
Forecast: 44 / 56 °F
Wind: 20 mph from Southwest

Location: Zurich Town / Ville.

Current Time: Mar 30, 2015 at 2:29:09 AM

Latest Report: Mar 30, 2015 at 1:00 AM


Visibility: N/A

Pressure: 29.76 "Hg

Humidity: 89%

Dew point: 44 °F

Location of ZugLocation

Historic Weather in Zug — Graph

°F

Zug temperature yesterday

Maximum temperature yesterday: 52 °F (at 12:00 PM)
Minimum temperature yesterday: 44 °F (at 3:00 AM)
Average temperature yesterday: 48 °F

Past Weeks' High & Low Weather Summary

 TemperatureHumidityPressure
High62 °F (Mar 18, 2:40 PM)97% (Mar 22, 1:00 AM)30.31 "Hg (Mar 22, 1:00 AM)
Low32 °F (Mar 15, 3:00 AM)34% (Mar 24, 5:00 PM)29.59 "Hg (Mar 25, 2:00 PM)
Average45 °F70%30.05 "Hg
* Reported Midnight between Mar 14 and Mar 15 — Mar 30 1:00 AM, Zug, Weather by CustomWeather, © 2015

Note: Actual official high and low records may vary slightly from our data, if they occured in-between our weather recording intervals... More about our weather records

Advertising

Zug weather history for previous 24 hours

 ConditionsComfort  
Time TempWeatherWind HumidityBarometerVisibility
1:00 AM
Mon, Mar 30
47 °FCool.20 mph89%29.76 "HgN/A
12:00 AM47 °FCool.23 mph86%29.77 "HgN/A
10:00 PM
Sun, Mar 29
47 °FCool.22 mph86%29.81 "HgN/A
9:00 PM49 °FCool.17 mph78%29.80 "HgN/A
8:00 PM50 °FCool.21 mph73%29.80 "HgN/A
7:00 PM51 °FCool.22 mph70%29.82 "HgN/A
6:00 PM50 °FCool.26 mph71%29.86 "HgN/A
5:00 PM49 °FCool.17 mph76%29.88 "HgN/A
4:00 PM48 °FCool.18 mph83%29.91 "HgN/A
3:00 PM49 °FCool.20 mph78%29.91 "HgN/A
2:00 PM48 °FCool.17 mph80%29.93 "HgN/A
1:00 PM51 °FCool.17 mph69%29.90 "HgN/A
12:00 PM52 °FCool.20 mph66%29.93 "HgN/A
11:00 AM51 °FCool.17 mph67%29.96 "HgN/A
10:00 AM50 °FCool.17 mph72%29.98 "HgN/A
9:00 AM47 °FCool.13 mph78%29.99 "HgN/A
8:00 AM48 °FCool.13 mph73%30.00 "HgN/A
7:00 AM47 °FCool.15 mph77%30.01 "HgN/A
6:00 AM47 °FCool.10 mph82%30.04 "HgN/A
5:00 AM47 °FCool.15 mph84%30.06 "HgN/A
4:00 AM45 °FCool.10 mph85%30.09 "HgN/A
3:00 AM44 °FQuite cool.3 mph88%30.10 "HgN/A
Weather by CustomWeather, © 2015

See weather overviewHow to use our weather pages